Skip Navigation Links weather.gov 
NOAA logo-Select to go to the NOAA homepage NDBC Title GraphicClick to go to NDBC home page   Select to go to the NWS homepage
Home About Us Contact Us
 
 
    
    Station List

 Data Access
    Mobile Access
    Classic Maps
         Recent
         DART®
    Obs Search
    Ship Obs Report
    BuoyCAMs
    TAO
    DODS
    OceanSITES
    HF Radar
    OSMC
    Dial-A-Buoy
    RSS Feeds Image indicating link to RSS feed access page
    Web Widget
    Email Access
    Web Data Guide
    Maintenance Schedule
    Station Status Report

 Program Info
    TAO
    DART®
    IOOS®

 Publications
    NDBC PEA
    NDBC FONSI
    NDBC DQC Handbook

 FAQ
 Visitor Information
 
USA.gov is the U.S. government's official web portal to all federal, state and local government web resources and services.

Hurricane Symbol Storm Special! View the latest observations near East Pacific Tropical Storm Tara.

Station SCXA2 - Scull Island, AK Image indicating link to RSS feed of recent meteorological observations for station SCXA2

Owned and maintained by Marine Exchange of Alaska
C-MAN Station
58.205 N 134.646 W (58°12'17" N 134°38'45" W)

Site elevation: 15.2 m above mean sea level
Air temp height: 2.4 m above site elevation
Anemometer height: 2.4 m above site elevation
Barometer elevation: 17.7 m above mean sea level

Search And Rescue (SAR) Data

Meteorological Observations from Nearby Stations and Ships Image indicating link to RSS feed of recent meteorological observations near station SCXA2

Large icon indicates selected station.
yellow diamond Stations with recent data
red diamond Stations with no data in last 8 hours
     (24 hours for tsunami stations)


Conditions at SCXA2 as of
(7:52 am AKDT)
1552 GMT on 10/15/2018:
     

Click on the graph icon in the table below to see a time series plot of the last five days of that observation.

5-day plot - Wind Direction Wind Direction (WDIR): E ( 90 deg true )
5-day plot - Wind Speed Wind Speed (WSPD): 25 kts
5-day plot - Wind Gust Wind Gust (GST): 31 kts
5-day plot - Atmospheric Pressure Atmospheric Pressure (PRES): 30.10 in
5-day plot - Air Temperature Air Temperature (ATMP): 45.3 °F
5-day plot - Dew Point Dew Point (DEWP): 41.5 °F
5-day plot - Wind Chill Wind Chill (CHILL): 35.8 °F
5-day plot - Wind Speed at 10 Meters Wind Speed at 10 meters (WSPD10M): 29 kts
5-day plot - Wind Speed at 10 Meters Wind Speed at 20 meters (WSPD20M): 31 kts
5-day plot - Wind Speed, Wind Gust and Atmospheric Pressure Combined plot of Wind Speed, Gust, and Air Pressure
Previous observations
5-day plot - Wind Direction 5-day plot - Wind Speed 5-day plot - Wind Gust 5-day plot - Wave Height 5-day plot - Dominant Wave Period 5-day plot - Average Period 5-day plot - Mean Wave Direction 5-day plot - Atmospheric Pressure 5-day plot - Pressure Tendency 5-day plot - Air Temperature 5-day plot - Water Temperature 5-day plot - Dew Point 5-day plot - Salinity 5-day plot - Visibility 5-day plot - Tide (above MLLW)
MM DD TIME
(AKDT)
WDIR WSPD
kts
GST
kts
WVHT
ft
DPD
sec
APD
sec
MWD PRES
in
PTDY
in
ATMP
°F
WTMP
°F
DEWP
°F
SAL
psu
VIS
nmi
TIDE
ft
1015 7:42 am E 25 34----30.09- 45.3- 41.7---
1015 7:32 am E 22 27----30.09- 45.0- 41.5---
1015 7:22 am E 24 27----30.08- 44.2- 40.8---
1015 7:12 am E 26 31----30.08- 44.4- 41.0---
1015 7:03 am E 27 34----30.08- 44.6- 41.7---
1015 6:52 am E 26 29----30.08- 44.4- 41.7---
1015 6:43 am E 26 30----30.08- 44.2- 41.7---
1015 6:33 am E 29 34----30.08- 44.2- 41.5---
1015 6:22 am E 29 32----30.07- 44.1- 41.4---
1015 6:12 am E 31 36----30.07- 44.2- 41.7---
1015 6:02 am E 30 37----30.06- 44.2- 41.7---
1015 5:52 am E 29 34----30.06- 44.6- 41.9---
1015 5:42 am E 30 36----30.06- 44.2- 41.5---
1015 5:33 am E 32 39----30.06- 44.4- 41.7---
1015 5:22 am E 29 33----30.06- 44.2- 41.7---
1015 5:12 am E 31 38----30.06- 44.2- 41.7---
1015 5:03 am E 32 38----30.06- 44.4- 41.9---
1015 4:53 am E 34 38----30.05- 44.4- 41.9---
1015 4:42 am E 33 40----30.06- 44.4- 41.7---
1015 4:32 am E 32 37----30.05- 44.6- 42.1---
1015 4:22 am E 35 42----30.04- 45.0- 42.3---
1015 4:13 am E 33 42----30.05- 45.1- 42.6---
1015 4:02 am E 35 41----30.04- 45.0- 42.4---
1015 3:52 am E 34 40----30.03- 45.0- 42.4---
1015 3:42 am E 33 38----30.03- 45.1- 42.6---
1015 3:33 am E 34 39----30.03- 45.1- 42.4---
1015 3:22 am E 33 41----30.02- 44.8- 42.3---
1015 3:12 am E 35 50----30.02- 45.0- 42.3---
1015 3:02 am E 32 40----30.03- 45.3- 42.4---
1015 2:52 am E 32 36----30.03- 45.1- 42.4---
1015 2:42 am E 30 35----30.03- 45.5- 42.8---
1015 2:32 am E 34 46----30.03- 45.7- 43.0---
1015 2:22 am E 33 38----30.03- 45.3- 42.6---
1015 2:12 am E 29 42----30.03- 45.3- 42.6---
1015 2:02 am E 28 36----30.03- 45.5- 42.6---
1015 1:52 am E 30 39----30.03- 45.9- 43.2---
1015 1:42 am E 32 42----30.03- 45.7- 43.0---
1015 1:32 am E 31 38----30.02- 45.0- 42.3---
1015 1:22 am E 32 40----30.01- 45.0- 41.9---
1015 1:12 amESE 37 46----30.01- 46.0- 43.0---
1015 1:03 amESE 41 58----30.00- 46.6- 43.3---
101512:53 amESE 39 45----30.00- 47.1- 43.7---
101512:42 amESE 36 49----29.99- 47.1- 43.2---
101512:33 amESE 37 44----29.99- 47.7- 43.2---
101512:22 amESE 41 54----29.99- 47.5- 43.0---
101512:12 amESE 37 49----30.00- 47.5- 43.0---
101512:02 amESE 36 47----30.00- 47.3- 42.8---
101411:52 pmESE 36 45----30.00- 47.5- 42.8---
101411:42 pmESE 35 47----30.00- 47.7- 43.0---
101411:32 pmESE 41 51----29.99- 47.7- 43.0---
101411:22 pmESE 38 48----29.99- 47.8- 43.2---
101411:12 pmESE 39 52----29.98- 47.5- 43.0---
101411:02 pmESE 39 51----29.99- 47.1- 42.8---
101410:52 pmESE 35 49----30.00- 47.1- 42.8---
101410:42 pmESE 40 50----30.00- 46.9- 42.8---
101410:32 pmESE 41 54----30.00- 47.3- 42.6---
101410:22 pmESE 44 54----30.00- 47.7- 42.6---
101410:12 pmESE 33 46----30.02- 47.5- 42.8---
101410:02 pmESE 33 46----30.02- 47.5- 42.8---
1014 9:52 pmESE 29 40----30.02- 47.7- 42.8---
1014 9:42 pmESE 28 38----30.03- 47.7- 43.0---
1014 9:32 pmESE 31 41----30.01- 47.7- 43.0---
1014 9:22 pmESE 37 43----30.01- 47.7- 43.0---
1014 9:12 pmESE 36 46----30.02- 47.8- 43.0---
1014 9:02 pmESE 36 46----30.01- 47.8- 43.0---
1014 8:52 pmESE 38 50----30.01- 47.8- 43.2---
1014 8:42 pmESE 38 53----30.01- 47.7- 43.2---
1014 8:32 pmESE 42 51----30.00- 47.7- 43.3---
1014 8:22 pmESE 40 52----29.99- 47.7- 43.3---
1014 8:12 pmESE 38 51----29.99- 47.5- 43.3---
1014 8:02 pmESE 35 44----30.00- 47.5- 43.2---
1014 7:52 pmESE 37 50----29.99- 47.5- 43.2---
1014 7:42 pmESE 32 41----29.99- 47.7- 43.2---
1014 7:32 pmESE 29 41----29.99- 47.5- 43.2---
1014 7:22 pmESE 23 29----30.00- 47.3- 43.2---
1014 7:12 pmESE 19 28----30.01- 47.5- 43.3---
1014 7:02 pmESE 19 29----30.01- 47.5- 43.3---
1014 6:53 pmESE 25 34----30.00- 47.3- 43.2---
1014 6:42 pmESE 33 46----30.00- 47.5- 43.2---
1014 6:33 pmESE 39 51----30.00- 47.3- 43.2---
1014 6:22 pmESE 32 45----29.99- 46.9- 43.2---
1014 6:12 pmESE 22 29----30.00- 46.6- 43.2---
1014 6:02 pmESE 24 31----30.00- 46.9- 43.2---
1014 5:53 pm E 28 35----29.99- 47.1- 43.3---
1014 5:42 pm E 26 40----29.99- 46.8- 43.3---
1014 5:32 pm E 25 29----29.98- 45.9- 42.4---
1014 5:22 pm E 28 34----29.98- 46.9- 43.2---
1014 5:12 pmESE 30 39----29.98- 46.6- 43.3---
1014 5:02 pm E 31 37----29.98- 46.0- 43.0---
1014 4:52 pm E 29 38----29.99- 46.6- 43.3---
1014 4:42 pm E 28 32----29.99- 46.0- 42.8---
1014 4:33 pm E 31 40----29.98- 45.3- 42.4---
1014 4:22 pm E 31 37----29.98- 46.0- 43.0---
1014 4:12 pm E 28 35----29.99- 45.1- 42.3---
1014 3:53 pm E 28 34----29.98- 45.9- 43.0---
1014 3:42 pm E 30 37----29.99- 45.5- 42.6---
1014 3:33 pm E 27 32----30.00- 46.0- 42.6---
1014 3:22 pmESE 28 34----30.00- 46.4- 43.2---
1014 3:12 pm E 29 36----30.00- 45.9- 43.0---
1014 3:03 pm E 28 39----30.00- 45.5- 42.4---
1014 2:53 pm E 29 36----30.01- 45.7- 43.0---
1014 2:42 pm E 32 39----30.00- 45.0- 42.3---
1014 2:33 pm E 30 39----30.01- 45.3- 42.6---
1014 2:22 pm E 33 42----30.00- 45.0- 42.1---
1014 2:12 pm E 28 37----30.00- 45.9- 42.8---
1014 2:02 pm E 31 39----30.00- 45.5- 42.6---
1014 1:52 pm E 32 45----29.99- 45.3- 42.3---
1014 1:42 pm E 31 37----29.99- 45.3- 42.3---
1014 1:32 pm E 35 41----29.99- 45.5- 42.4---
1014 1:22 pm E 31 38----30.01- 45.5- 42.4---
1014 1:13 pm E 29 37----30.01- 46.0- 43.0---
1014 1:03 pm E 31 37----30.01- 45.7- 42.6---
101412:53 pm E 30 36----30.01- 46.0- 42.8---
101412:43 pm E 31 40----30.01- 46.2- 43.0---
101412:32 pm E 29 44----30.00- 45.7- 42.4---
101412:23 pm E 32 38----30.00- 45.9- 42.6---
101412:12 pm E 31 38----30.01- 46.0- 43.0---
101412:02 pm E 31 41----30.00- 45.7- 42.8---
101411:52 am E 32 39----30.01- 45.5- 42.6---
101411:42 am E 35 47----30.00- 45.1- 42.4---
101411:32 am E 33 41----30.00- 45.1- 42.3---
101411:22 am E 33 39----30.00- 45.1- 42.3---
101411:12 am E 34 41----30.00- 45.0- 42.1---
101411:02 am E 33 42----30.01- 44.4- 41.5---
101410:52 am E 30 40----30.01- 44.6- 41.7---
101410:42 amESE 35 43----30.00- 44.8- 41.9---
101410:32 amESE 36 44----30.00- 45.0- 42.1---
101410:22 amESE 37 47----30.00- 44.8- 41.7---
101410:12 amESE 37 44----30.01- 44.6- 41.5---
101410:02 amESE 33 42----30.00- 45.0- 41.9---
1014 9:52 am E 30 37----30.00- 44.8- 41.5---
1014 9:42 am E 28 34----30.01- 44.6- 41.4---
1014 9:32 am E 28 35----30.01- 44.2- 41.2---
1014 9:22 am E 29 34----30.01- 44.4- 41.4---
1014 9:12 am E 28 35----30.01- 44.4- 41.5---
1014 9:02 am E 26 32----30.00- 44.1- 41.0---
1014 8:52 am E 20 26----30.01- 45.0- 41.5---
1014 8:42 am E 23 32----30.00- 45.1- 41.9---
1014 8:32 am E 27 35----29.99- 45.0- 41.9---
1014 8:22 am E 26 40----29.98- 44.8- 41.5---
1014 8:12 am E 32 41----29.98- 45.1- 41.7---
1014 8:02 amESE 30 40----29.98- 45.7- 41.9---
1014 7:52 amESE 35 52----29.97- 45.5- 41.7---

Description of Measurements

Links which are specific to this station are listed below:

Real Time Data in tabular form for the last forty-five days.

Historical Data & Climatic Summaries for quality controlled data for the current month, previous months, and previous years.